Miscellaneous Local Product
Issued by NWS North Platte, NE

Home | Current Version | Previous Version | Graphics & Text | Print | Product List | Glossary On
Versions: 1 2 3 4 5 6 7 8 9 10 11 12 13 14 15 16 17 18 19 20 21 22 23 24 25 26 27 28 29 30 31 32 33 34 35 36 37 38 39 40 41 42 43 44 45 46 47 48 49 50
000
AXUS43 KLBF 280810
MISLBF


WESTERN AND NORTH CENTRAL NEBRASKA HOURLY WEATHER ROUNDUP
NATIONAL WEATHER SERVICE NORTH PLATTE NE
300 AM CDT TUE JUL 28 2015

***STATIONS NOT REPORTING VARIABLES SUCH AS SKY/WEATHER OR
PRESSURE ARE PROVIDED BY THE NEBRASKA DEPARTMENT OF
ROADS...RAWS...AND APRS NETWORKS...AND ARE NOT UNDER
NATIONAL WEATHER SERVICE QUALITY CONTROL***

...OBSERVATIONS IN AND NEAR THE EASTERN PANHANDLE OF NEBRASKA...

CITY           SKY/WX    TMP DP  RH WIND       PRES   REMARKS
PINE RIDGE     MOCLDY    64  56  75 N5        29.91R
CHADRON        CLEAR     60  50  69 W18G26    29.92R
ALLIANCE       CLEAR     64  52  64 N17       29.93R
SIDNEY         CLEAR     66  51  58 NW13      29.94R
BIG SPRINGS      N/A     74  60  61 N5          N/A
$$

...OBSERVATIONS IN NORTH CENTRAL NEBRASKA...

CITY           SKY/WX    TMP DP  RH WIND       PRES   REMARKS
VALENTINE      CLOUDY    68  65  90 SW7       29.74F
THEDFORD       CLOUDY    71  63  74 SE6       29.78S
AINSWORTH      CLOUDY    69  66  88 E6        29.70F
O`NEILL        TSTM      77  72  83 W8G22     29.78R
ORD            MOCLDY    80  66  62 S10       29.72S
BROKEN BOW     MOCLDY    82  68  62 W8G25     29.79R
SPRINGVIEW       N/A     73  67  81 CALM        N/A
CHAMBERS         N/A     78  69  73 NW3         N/A
EWING            N/A     79  71  75 S6G14       N/A
$$

...OBSERVATIONS IN SOUTHWEST NEBRASKA AND FAR NORTHEAST COLORADO...

CITY           SKY/WX    TMP DP  RH WIND       PRES   REMARKS
WRAY           FAIR      68  58  70 W8        29.82R
HOLYOKE        FAIR      77  59  53 NW21G29   29.84R
IMPERIAL       CLEAR     74  64  71 SW7       29.78S
OGALLALA       PTCLDY    74  66  75 NW7       29.82R
NORTH PLATTE   CLEAR     79  68  69 NW8G23    29.76R
MCCOOK         CLEAR     82  68  62 S16G28    29.73F
LEXINGTON      CLEAR     81  68  64 S16       29.74F
PAXTON           N/A     74  69  85 NW3         N/A
BRADY            N/A     79  69  72 CALM        N/A
CALLAWAY         N/A     78  71  80 W10         N/A
$$

...NORTH PLATTE AREA...

CITY           SKY/WX    TMP DP  RH WIND       PRES   REMARKS
AIRPORT        CLEAR     79  68  69 NW8G23    29.76R
DOWNTOWN         N/A     79  70  74 S3          N/A
SANDRIDGE        N/A     80  69  70 CALM        N/A
HILLCREST        N/A     79  69  72 SE3         N/A
$$

...SOME WEATHER OBSERVATIONS FROM AROUND THE REGION...

CITY           SKY/WX    TMP DP  RH WIND       PRES   REMARKS
DENVER         CLEAR     63  40  42 NE10      30.00R
LARAMIE        CLEAR     52  26  36 NE10      30.20R
CHEYENNE       LGT RAIN  61  30  31 NW24G38   30.08R
SCOTTSBLUFF    CLEAR     62  52  69 N20G26    29.97R
RAPID CITY     CLEAR     59  51  75 NW15      29.87R
PIERRE         CLOUDY    67  66  97 W7        29.70R
WINNER         FAIR      67  64  90 S8G20     29.70F
SIOUX FALLS    HVY RAIN  74  71  91 S25G33    29.74R FOG
OMAHA          CLEAR     77  71  82 S13       29.81F
GRAND ISLAND   PTCLDY    78  68  71 S15       29.75F
KANSAS CITY    CLEAR     77  74  90 SE9       29.88F
WICHITA        CLEAR     81  70  69 S12       29.87S
HAYS           CLEAR     81  64  57 S18       29.81S
LIBERAL        CLEAR     81  63  54 S17       29.89F
GOODLAND       CLEAR     75  64  68 S16       29.81F
$$



USA.gov is the U.S. government's official web portal to all federal, state and local government web resources and services.